sat.trackr.live / text

‹ back to catalog

STARLINK-5141

NORAD 55500 · 2023-015BD

PAYLOAD ACTIVE UNKNOWN

§ Identity

Operator
Country
US
Launch date
2023-02-02
Launch site
AFETR
Launch vehicle
Mass (kg)
RCS (m²)

Purposes: comms

External: N2YO · Heavens-Above · Gunter

§ Orbital elements

Epoch: 2026-05-24T16:09:26.740224Z

Period
94.27 min
Inclination
43.0058°
Eccentricity
0.0002106
Mean motion
15.27575305 rev/d
Perigee alt
481.6 km
Apogee alt
484.5 km
Semi-major
6,861.2 km
B*
1.1102e-5
RAAN
270.8077°
Arg perigee
279.7030°
Mean anomaly
80.3583°
Rev number
18,221

§ Raw data

STARLINK-51411 55500U 23015BD  26144.67322616  .00000043  00000+0  11102-4 0  99912 55500  43.0058 270.8077 0002106 279.7030  80.3583 15.27575305182216

JSON: /api/v1/satellites/55500 · /tle

For live sub-satellite position, see the globe view (requires WebGL).

§ Visibility from observer

Set your observer location to see the next 7 days of passes ≥ 10°. The values pass through the URL so the page stays shareable.

No JS? Fill the form by hand. The geolocation button needs JavaScript.